Weather History for Oxford, CT

Change the Weather History Date:

Sunday, May 11, 2014

  Actual Average Record
Temperature  
Mean Temperature 63 °F -  
Max Temperature 75 °F 63 °F 82 °F (2001)
Min Temperature 51 °F 43 °F 37 °F (1999)
Degree Days  
Heating Degree Days 2    
Growing Degree Days 13 (Base 50)    
Moisture  
Dew Point 45 °F    
Average Humidity 57    
Maximum Humidity 88    
Minimum Humidity 21    
Precipitation  
Precipitation 0.03 in - - ()
Sea Level Pressure  
Sea Level Pressure 29.99 in    
Wind  
Wind Speed 4 mph (WNW)    
Max Wind Speed 18 mph    
Max Gust Speed 20 mph    
Visibility 10 miles    
Events      
Averages and records for this station are not official NWS values.
T = Trace of Precipitation, MM = Missing Value Source: NWS Daily Summary

Daily Weather History Graph

Daily Weather History Graph

Search for Another Location

Airport:

Trip Planner

Search our weather history database for the weather conditions in past years. The results will help you decide how hot, cold, wet, or windy it might be!

Date:

Astronomy

May. 11, 2014 Rise Set
Actual Time 5:37 AM EDT 8:00 PM EDT
Civil Twilight 5:06 AM EDT 8:32 PM EDT
Nautical Twilight 4:27 AM EDT 9:10 PM EDT
Astronomical Twilight 3:45 AM EDT 9:53 PM EDT
Moon 4:51 PM EDT (5/11) 3:43 AM EDT (5/11)
Length of Visible Light 15h 25m
Length of Day
14h 23m
Waxing Gibbous, 89% of the Moon is Illuminated
May 11
Waxing Gibbous
May 14
Full
May 21
Last Quarter
May 28
New
Jun 5
First Quarter

Hourly Weather History & Observations

Time (EDT) Temp. Dew Point Humidity Pressure Visibility Wind Dir Wind Speed Gust Speed Precip Events Conditions
12:15 AM 62.6 °F 55.4 °F 77% 29.88 in 10.0 mi WSW 5.8 mph - N/A   Partly Cloudy
12:35 AM 62.6 °F 55.4 °F 77% 29.89 in 10.0 mi WSW 3.5 mph - N/A   Mostly Cloudy
12:55 AM 62.6 °F 55.4 °F 77% 29.89 in 10.0 mi WSW 4.6 mph - N/A   Scattered Clouds
1:15 AM 62.6 °F 55.4 °F 77% 29.89 in 10.0 mi West 3.5 mph - N/A   Scattered Clouds
1:35 AM 62.6 °F 55.4 °F 77% 29.89 in 10.0 mi West 3.5 mph - N/A   Overcast
1:55 AM 62.6 °F 55.4 °F 77% 29.89 in 10.0 mi West 5.8 mph - N/A   Overcast
2:15 AM 62.6 °F 55.4 °F 77% 29.89 in 10.0 mi WNW 6.9 mph - N/A   Overcast
2:35 AM 62.6 °F 55.4 °F 77% 29.90 in 10.0 mi NW 4.6 mph - 0.01 in   Overcast
2:55 AM 60.8 °F 55.4 °F 82% 29.90 in 10.0 mi NNW 8.1 mph 16.1 mph 0.02 in   Overcast
3:15 AM 60.8 °F 53.6 °F 77% 29.91 in 10.0 mi NW 3.5 mph - N/A   Overcast
3:35 AM 57.2 °F 53.6 °F 88% 29.92 in 10.0 mi Calm Calm - 0.01 in   Overcast
3:55 AM 57.2 °F 51.8 °F 82% 29.93 in 10.0 mi Calm Calm - 0.01 in   Overcast
4:15 AM 57.2 °F 48.2 °F 72% 29.93 in 10.0 mi NW 3.5 mph - N/A   Mostly Cloudy
4:35 AM 57.2 °F 46.4 °F 67% 29.94 in 10.0 mi NNW 3.5 mph - N/A   Partly Cloudy
4:55 AM 55.4 °F 44.6 °F 67% 29.94 in 10.0 mi Calm Calm - N/A   Clear
5:15 AM 55.4 °F 46.4 °F 72% 29.95 in 10.0 mi Calm Calm - N/A   Clear
5:35 AM 53.6 °F 48.2 °F 82% 29.96 in 10.0 mi Calm Calm - N/A   Clear
5:48 AM 51.8 °F 46.4 °F 82% 29.96 in 10.0 mi Calm Calm - N/A   Clear
6:45 AM 51.8 °F 46.4 °F 82% 30.00 in 10.0 mi Calm Calm - N/A   Clear
8:52 AM 62.6 °F 42.8 °F 48% 30.04 in 10.0 mi NW 5.8 mph 19.6 mph N/A   Clear
9:54 AM 64.4 °F 41.0 °F 42% 30.05 in 10.0 mi NW 5.8 mph 17.3 mph N/A   Clear
10:55 AM 66.2 °F 42.8 °F 43% 30.04 in 10.0 mi NNW 9.2 mph 17.3 mph N/A   Clear
11:45 AM 69.8 °F 42.8 °F 38% 30.06 in 10.0 mi WNW 9.2 mph - N/A   Clear
12:50 PM 71.6 °F 42.8 °F 35% 30.06 in 10.0 mi West 6.9 mph 16.1 mph N/A   Clear
2:45 PM 73.4 °F 39.2 °F 29% 30.04 in 10.0 mi WNW 18.4 mph 18.4 mph N/A   Clear
3:45 PM 75.2 °F 39.2 °F 27% 30.03 in 10.0 mi WNW 12.7 mph 18.4 mph N/A   Clear
4:45 PM 75.2 °F 37.4 °F 25% 30.03 in 10.0 mi West 11.5 mph 18.4 mph N/A   Clear
5:45 PM 75.2 °F 33.8 °F 22% 30.04 in 10.0 mi NW 9.2 mph 17.3 mph N/A   Clear
6:45 PM 75.2 °F 32.0 °F 21% 30.03 in 10.0 mi NW 9.2 mph - N/A   Clear
7:45 PM 73.4 °F 33.8 °F 23% 30.06 in 10.0 mi WNW 3.5 mph - N/A   Clear
9:15 PM 62.6 °F 37.4 °F 39% 30.10 in 10.0 mi Calm Calm - N/A   Clear
9:35 PM 62.6 °F 39.2 °F 42% 30.10 in 10.0 mi Calm Calm - N/A   Clear
9:55 PM 60.8 °F 37.4 °F 42% 30.10 in 10.0 mi Calm Calm - N/A   Clear
10:15 PM 60.8 °F 35.6 °F 39% 30.10 in 10.0 mi Calm Calm - N/A   Clear
10:35 PM 60.8 °F 35.6 °F 39% 30.10 in 10.0 mi North 3.5 mph - N/A   Clear
10:55 PM 57.2 °F 35.6 °F 44% 30.10 in 10.0 mi Calm Calm - N/A   Clear
11:15 PM 57.2 °F 35.6 °F 44% 30.10 in 10.0 mi SSW 4.6 mph - N/A   Clear
11:35 PM 57.2 °F 35.6 °F 44% 30.10 in 10.0 mi Calm Calm - N/A   Clear